Harrison, AR

8:58 AM CDT on March 27, 2017 (GMT -0500)
Boone County

Weather History for KHRO - February, 2012

Change the Weather History Date:

Thursday, February 2, 2012

  Actual Average Record
Temperature  
Mean Temperature 49 °F 38 °F  
Max Temperature 62 °F 48 °F 77 °F (1920)
Min Temperature 35 °F 28 °F -14 °F (1951)
Degree Days  
Heating Degree Days 16 27  
Month to date heating degree days 31 54  
Since 1 July heating degree days 2144 2540  
Cooling Degree Days 0 0  
Month to date cooling degree days 0 0  
Year to date cooling degree days 0 0  
Moisture  
Dew Point 31 °F    
Average Humidity 54    
Maximum Humidity 82    
Minimum Humidity 26    
Precipitation  
Precipitation 0.00 in 0.09 in 2.02 in (1989)
Month to date precipitation T 0.18  
Year to date precipitation 3.26 2.74  
Snow  
Snow 0.00 in 0.20 in 6.00 in (1929)
Month to date snowfall 0.0 0.4  
Since 1 July snowfall 1.1 6.4  
Snow Depth 0.00 in    
Sea Level Pressure  
Sea Level Pressure 30.22 in    
Wind  
Wind Speed 8 mph (ESE)    
Max Wind Speed 18 mph    
Max Gust Speed 24 mph    
Visibility 10 miles    
Events      
T = Trace of Precipitation, MM = Missing Value Source: NWS Daily Summary

Daily Weather History Graph

Daily Weather History Graph

Search for Another Location

Airport or City:

Trip Planner

Search our weather history database for the weather conditions in past years. The results will help you decide how hot, cold, wet, or windy it might be!

Date:

Astronomy

Feb. 02, 2012 Rise Set
Actual Time 7:13 AM CST 5:39 PM CST
Civil Twilight 6:46 AM CST 6:06 PM CST
Nautical Twilight 6:15 AM CST 6:37 PM CST
Astronomical Twilight 5:45 AM CST 7:07 PM CST
Moon 12:55 PM CST (2/2) 2:52 AM CST (2/2)
Length of Visible Light 11h 20m
Length of Day
10h 26m
Waxing Gibbous, 74% of the Moon is Illuminated
Feb 2
Waxing Gibbous
Feb 7
Full
Feb 14
Last Quarter
Feb 21
New
Feb 29
First Quarter

Hourly Weather History & Observations

Time (CST) Temp. Windchill Dew Point Humidity Pressure Visibility Wind Dir Wind Speed Gust Speed Precip Events Conditions
12:53 AM 45.0 °F - 30.0 °F 56% 30.21 in 10.0 mi Calm Calm - N/A   Clear
1:53 AM 42.1 °F - 30.0 °F 62% 30.21 in 10.0 mi Calm Calm - N/A   Clear
2:53 AM 39.9 °F 37.8 °F 30.0 °F 68% 30.21 in 10.0 mi South 3.5 mph - N/A   Clear
3:53 AM 42.1 °F 40.2 °F 30.9 °F 65% 30.20 in 10.0 mi SSE 3.5 mph - N/A   Clear
4:53 AM 39.9 °F - 30.9 °F 70% 30.21 in 10.0 mi Calm Calm - N/A   Clear
5:53 AM 39.2 °F 35.9 °F 30.2 °F 70% 30.22 in 10.0 mi SE 4.6 mph - N/A   Clear
6:53 AM 36.0 °F 30.3 °F 30.0 °F 79% 30.25 in 10.0 mi ESE 6.9 mph - N/A   Clear
7:53 AM 36.0 °F 30.3 °F 30.9 °F 82% 30.27 in 10.0 mi SE 6.9 mph - N/A   Clear
8:53 AM 41.0 °F 35.8 °F 33.1 °F 73% 30.27 in 10.0 mi ESE 8.1 mph - N/A   Clear
9:53 AM 48.0 °F - 35.1 °F 61% 30.28 in 10.0 mi ESE 9.2 mph - N/A   Clear
10:53 AM 54.0 °F - 35.1 °F 49% 30.28 in 10.0 mi SE 12.7 mph - N/A   Clear
11:53 AM 57.0 °F - 37.0 °F 47% 30.25 in 10.0 mi ESE 15.0 mph 19.6 mph N/A   Clear
12:53 PM 60.1 °F - 37.9 °F 44% 30.22 in 10.0 mi East 13.8 mph - N/A   Clear
1:53 PM 60.1 °F - 36.0 °F 41% 30.19 in 10.0 mi ESE 13.8 mph - N/A   Clear
2:53 PM 61.0 °F - 30.0 °F 31% 30.18 in 10.0 mi ESE 13.8 mph - N/A   Clear
3:53 PM 61.0 °F - 27.0 °F 27% 30.17 in 10.0 mi East 15.0 mph - N/A   Clear
4:53 PM 59.0 °F - 25.0 °F 27% 30.18 in 10.0 mi ESE 13.8 mph 24.2 mph N/A   Clear
5:53 PM 55.9 °F - 26.1 °F 32% 30.19 in 10.0 mi ESE 12.7 mph - N/A   Clear
6:53 PM 54.0 °F - 28.0 °F 37% 30.21 in 10.0 mi ESE 15.0 mph 21.9 mph N/A   Clear
7:53 PM 52.0 °F - 30.9 °F 45% 30.22 in 10.0 mi SE 9.2 mph - N/A   Clear
8:53 PM 48.9 °F - 30.9 °F 50% 30.22 in 10.0 mi SE 6.9 mph - N/A   Clear
9:53 PM 48.9 °F - 33.1 °F 54% 30.21 in 10.0 mi ESE 5.8 mph - N/A   Clear
10:53 PM 48.0 °F - 33.1 °F 56% 30.20 in 10.0 mi ESE 5.8 mph - N/A   Clear
11:53 PM 46.9 °F - 34.0 °F 61% 30.19 in 10.0 mi SE 6.9 mph - N/A   Partly Cloudy